CZ-6A DEB

Satellite information

Favourite Embed

Satellite Type and Status

DEBRISIN ORBIT

Key statistics

Satellite CZ-6A DEB at a glance.

Uptime

909

Days in orbit

Revolutions

≈ 14.3

Per day

Orbit

SSO

Sun Synchronous Orbit

Inclination

98.7

Latest

Satellite identification and parameters

Extended collection of information and parameters for CZ-6A DEB.

Object identification

Identified? True

Debris? True

Object name: CZ-6A DEB

International designator: 2022-151AGK

Object number (NORAD): 56659

Object ID (CCSDS): 56659

Country: PEOPLES REPUBLIC OF CHINA (PRC)

Current information (Y/N): Y

RCS size: SMALL

Orbital parameters

Period: 100.495 minutes

Inclination: 98.7437 deg

SMA: 7160.188 km

Apoapsis: 802.521 km

Periapsis: 761.585 km

RAAN: 147.7684 deg

Eccentricy: 0.0028586

Argument of periapsis: 91.0911 deg

Mean anomaly: 269.3547 deg

Mean motion: 14.32900888 rev/day

Mean motion (dot): 0.00005355 rev/day2

B* drag term: 0.0019667 1/REarth

Two-line elements (TLE)

Creation date: May 6, 2025, 3:54 a.m.

Reference frame: TEME

Reference center: EARTH

Epoch: May 5, 2025, 7:12 p.m. UTC

TLE line 0: 0 CZ-6A DEB

TLE line 1: 1 56659U 22151AGK 25125.80057001 .00005355 00000-0 19667-2 0 9997

TLE line 2: 2 56659 98.7437 147.7684 0028586 91.0911 269.3547 14.32900888109524

Live tracking on map

Real-time ground track for satellite CZ-6A DEB.

In-orbit conjunctions

A list of the most updated potential collisions computed for object CZ-6A DEB.

Target Orbit TCA Probability of collision Miss distance Type
IRIDIUM 16 LEO 2025-04-27 15:33:54 0.0001351963 262.0 (m) PAYLOAD
METEOR 1-5 DEB LEO 2025-04-19 10:36:51 0.0001346896 235.0 (m) DEBRIS

Associated space launch

Chinese satellite reported for atmospheric/ocean/environmental/spatial parameter research purposes, details TBD.

CZ-6A DEB was lifted into orbit during the mission ‘Long March 6A | Yunhai 3’, on board a Long March 6A space rocket.

The launch took place on Nov. 11, 2022, 10:52 p.m. from Launch Complex 9A.

For more information about the launch, click the button.

Launch to space Long March 6A | Yunhai 3
Long March 6A | Yunhai 3

Agency: N/A

Status: Launch Successful

Launch date: Nov. 11, 2022, 10:52 p.m. UTC

Rocket: Long March 6A

Launch pad: Launch Complex 9A

Location: Taiyuan Satellite Launch Center, People's Republic of China

...

Latest news about this satellite

There are no fresh news available about this satellite. Check back as we update our databases every day.


Newsletter sign-up

Weekly statistics, charts and insights to help you stay on top of the space industry.